Location: Москва
(55.7518°N, 37.5952°E)
Time: 18:35:43
(UTC+03:00)

ISS - Pass Details

Date: 31 January 2021
Orbit: 417 x 422 km, 51.6° (Epoch: 18 May)

Event Time Altitude Azimuth Distance (km) Brightness Sun altitude
Rises 18:15:40 0° 266° (W) 2,373 2.0 -10.4°
Reaches altitude 10° 18:17:51 10° 258° (WSW) 1,509 0.7 -10.7°
Maximum altitude 18:21:01 38° 189° (S) 662 -2.6 -11.1°
Enters shadow 18:24:05 11° 120° (ESE) 1,468 -1.4 -11.5°
